| time (UTC) | temp F | wind direction | speed MPH | gust MPH | rain 1hr in | rain 24hr in | rain mn in | humidity % | barometer mb |
| 20260509201600 | 73 | 209 | 4.0 | 9.0 | 0.00 | 0.07 | 0.03 | 86 | 963.5 |
| 20260509201058 | 73 | 202 | 4.0 | 9.0 | 0.00 | 0.07 | 0.03 | 86 | 1035.9 |
| 20260509200558 | 73 | 196 | 3.0 | 9.0 | 0.00 | 0.07 | 0.03 | 86 | 136.2 |
| 20260509195558 | 72 | 198 | 3.0 | 12.0 | 0.00 | 0.07 | 0.03 | 86 | 1387.6 |
| 20260509195102 | 72 | 237 | 4.0 | 12.0 | 0.00 | 0.07 | 0.03 | 86 | 2142.4 |
| 20260509194600 | 72 | 204 | 3.0 | 7.0 | 0.00 | 0.07 | 0.03 | 86 | 383.8 |
| 20260509194058 | 72 | 173 | 2.0 | 11.0 | 0.00 | 0.07 | 0.03 | 86 | 1046.2 |
| 20260509193601 | 72 | 192 | 5.0 | 14.0 | 0.00 | 0.07 | 0.03 | 86 | 1563.4 |
| 20260509193103 | 72 | 213 | 4.0 | 14.0 | 0.00 | 0.07 | 0.03 | 86 | 374.6 |
| 20260509192558 | 72 | 168 | 6.0 | 10.0 | 0.00 | 0.07 | 0.03 | 86 | 1780.6 |
| 20260509192059 | 72 | 193 | 5.0 | 10.0 | 0.00 | 0.07 | 0.03 | 87 | 404.5 |
| 20260509191601 | 72 | 224 | 4.0 | 10.0 | 0.00 | 0.07 | 0.03 | 87 | 1315.2 |
| 20260509191103 | 72 | 207 | 5.0 | 11.0 | 0.00 | 0.07 | 0.03 | 87 | 1387.6 |
| 20260509190604 | 72 | 216 | 6.0 | 11.0 | 0.00 | 0.07 | 0.03 | 87 | 477.0 |
| 20260509190104 | 72 | 217 | 4.0 | 9.0 | 0.00 | 0.07 | 0.03 | 87 | 145.3 |
| 20260509185603 | 72 | 221 | 4.0 | 10.0 | 0.00 | 0.07 | 0.03 | 87 | 2142.4 |
| 20260509185059 | 72 | 213 | 4.0 | 15.0 | 0.00 | 0.07 | 0.03 | 87 | 41.5 |
| 20260509184601 | 72 | 196 | 5.0 | 15.0 | 0.00 | 0.07 | 0.03 | 87 | 559.8 |
| 20260509184058 | 72 | 225 | 3.0 | 8.0 | 0.00 | 0.07 | 0.03 | 87 | 1532.4 |
| 20260509183558 | 72 | 233 | 4.0 | 8.0 | 0.00 | 0.07 | 0.03 | 87 | 1149.7 |
| 20260509183059 | 72 | 175 | 3.0 | 7.0 | 0.01 | 0.07 | 0.03 | 87 | 125.8 |
| 20260509182558 | 72 | 146 | 3.0 | 7.0 | 0.01 | 0.07 | 0.03 | 87 | 2028.7 |
| 20260509182058 | 72 | 192 | 1.0 | 3.0 | 0.00 | 0.07 | 0.02 | 87 | 311.3 |
| 20260509181611 | 72 | 231 | 1.0 | 3.0 | 0.00 | 0.07 | 0.02 | 87 | 1977.0 |
| 20260509181058 | 72 | 189 | 1.0 | 2.0 | 0.01 | 0.07 | 0.02 | 87 | 41.5 |
| 20260509180559 | 72 | 275 | 0.0 | 6.0 | 0.01 | 0.07 | 0.02 | 87 | 2028.7 |
| 20260509180108 | 72 | 198 | 2.0 | 6.0 | 0.01 | 0.07 | 0.02 | 88 | 146.5 |
| 20260509175558 | 72 | 161 | 2.0 | 6.0 | 0.01 | 0.07 | 0.02 | 88 | 1149.7 |
| 20260509175101 | 72 | 0 | 1.0 | 2.0 | 0.01 | 0.07 | 0.02 | 88 | 404.5 |
| 20260509174611 | 72 | 0 | 1.0 | 5.0 | 0.01 | 0.07 | 0.02 | 88 | 1863.3 |
| 20260509174057 | 72 | 189 | 1.0 | 5.0 | 0.01 | 0.07 | 0.02 | 88 | 229.5 |
| 20260509173602 | 72 | 250 | 1.0 | 6.0 | 0.01 | 0.07 | 0.02 | 88 | 984.2 |
| 20260509173110 | 72 | 221 | 1.0 | 6.0 | 0.00 | 0.07 | 0.01 | 88 | 311.3 |
| 20260509172601 | 72 | 219 | 1.0 | 7.0 | 0.00 | 0.07 | 0.01 | 88 | 735.8 |
| 20260509172058 | 72 | 198 | 2.0 | 7.0 | 0.00 | 0.07 | 0.01 | 88 | 2204.5 |
| 20260509171610 | 72 | 247 | 0.0 | 4.0 | 0.00 | 0.07 | 0.01 | 88 | 704.8 |
| 20260509171101 | 72 | 0 | 2.0 | 8.0 | 0.00 | 0.06 | 0.00 | 88 | 1615.1 |
| 20260509170558 | 72 | 240 | 3.0 | 8.0 | 0.00 | 0.06 | 0.00 | 88 | 808.3 |
| 20260509170107 | 72 | 252 | 2.0 | 7.0 | 0.00 | 0.06 | 0.00 | 88 | 1118.7 |
| 20260509165601 | 72 | 247 | 1.0 | 4.0 | 0.00 | 0.07 | 0.00 | 88 | 405.7 |
| 20260509165058 | 71 | 197 | 1.0 | 5.0 | 0.00 | 0.07 | 0.00 | 88 | 549.5 |
| 20260509164604 | 71 | 272 | 2.0 | 5.0 | 0.00 | 0.07 | 0.00 | 88 | 207.6 |
| 20260509164100 | 71 | 219 | 3.0 | 5.0 | 0.00 | 0.07 | 0.00 | 88 | 456.3 |
| 20260509163605 | 72 | 5 | 1.0 | 3.0 | 0.00 | 0.07 | 0.00 | 88 | 2028.7 |
| 20260509163113 | 71 | 360 | 0.0 | 3.0 | 0.00 | 0.07 | 0.00 | 88 | 2049.4 |
| 20260509162602 | 71 | 303 | 1.0 | 3.0 | 0.00 | 0.07 | 0.00 | 88 | 622.0 |
| 20260509162101 | 71 | 274 | 2.0 | 3.0 | 0.00 | 0.07 | 0.00 | 88 | 404.5 |
| 20260509161608 | 71 | 289 | 1.0 | 3.0 | 0.00 | 0.07 | 0.00 | 88 | 228.3 |
| 20260509161101 | 71 | 290 | 0.0 | 3.0 | 0.00 | 0.07 | 0.00 | 88 | 1863.3 |
| 20260509160601 | 71 | 200 | 1.0 | 3.0 | 0.00 | 0.07 | 0.00 | 88 | 1149.7 |
| 20260509155601 | 71 | 352 | 1.0 | 3.0 | 0.00 | 0.10 | 0.00 | 88 | 653.0 |
| 20260509155101 | 71 | 0 | 0.0 | 3.0 | 0.00 | 0.10 | 0.00 | 88 | 1129.0 |
| 20260509154605 | 71 | 22 | 2.0 | 4.0 | 0.00 | 0.10 | 0.00 | 88 | 322.8 |
| 20260509154057 | 71 | 0 | 1.0 | 4.0 | 0.00 | 0.10 | 0.00 | 88 | 1790.9 |
| 20260509153558 | 71 | 261 | 1.0 | 3.0 | 0.00 | 0.10 | 0.00 | 88 | 385.0 |
| 20260509153110 | 71 | 333 | 1.0 | 3.0 | 0.00 | 0.10 | 0.00 | 88 | 798.0 |
| 20260509152558 | 71 | 34 | 1.0 | 3.0 | 0.00 | 0.10 | 0.00 | 88 | 404.5 |
| 20260509152103 | 71 | 274 | 0.0 | 2.0 | 0.00 | 0.10 | 0.00 | 88 | 1046.2 |
| 20260509151558 | 71 | 274 | 0.0 | 2.0 | 0.00 | 0.09 | 0.00 | 89 | 404.5 |
| 20260509151101 | 71 | 274 | 1.0 | 4.0 | 0.00 | 0.09 | 0.00 | 89 | 808.3 |
| 20260509150602 | 71 | 307 | 2.0 | 4.0 | 0.00 | 0.09 | 0.00 | 89 | 405.7 |
| 20260509145602 | 71 | 345 | 1.0 | 3.0 | 0.00 | 0.11 | 0.00 | 89 | 322.8 |
| 20260509145102 | 70 | 312 | 1.0 | 3.0 | 0.00 | 0.11 | 0.00 | 89 | 1149.7 |
| 20260509144600 | 70 | 320 | 1.0 | 3.0 | 0.00 | 0.11 | 0.00 | 88 | 300.9 |
| 20260509144101 | 70 | 333 | 1.0 | 2.0 | 0.00 | 0.11 | 0.00 | 88 | 963.5 |
| 20260509143602 | 70 | 315 | 1.0 | 4.0 | 0.00 | 0.11 | 0.00 | 88 | 1304.9 |
| 20260509143110 | 70 | 0 | 1.0 | 4.0 | 0.00 | 0.11 | 0.00 | 88 | 704.8 |
| 20260509142602 | 70 | 288 | 2.0 | 3.0 | 0.00 | 0.11 | 0.00 | 88 | 1377.3 |
| 20260509142103 | 70 | 9 | 0.0 | 2.0 | 0.00 | 0.11 | 0.00 | 88 | 228.3 |
| 20260509141600 | 70 | 0 | 0.0 | 2.0 | 0.00 | 0.11 | 0.00 | 88 | 1966.7 |
| 20260509141058 | 70 | 105 | 0.0 | 2.0 | 0.01 | 0.11 | 0.00 | 88 | 1790.9 |
| 20260509140602 | 70 | 129 | 1.0 | 2.0 | 0.01 | 0.11 | 0.00 | 88 | 228.3 |
| 20260509140119 | 70 | 286 | 1.0 | 2.0 | 0.01 | 0.11 | 0.00 | 88 | 901.4 |
| 20260509135602 | 70 | 286 | 0.0 | 2.0 | 0.01 | 0.14 | 0.11 | 88 | 291.7 |
| 20260509135057 | 70 | 286 | 1.0 | 5.0 | 0.01 | 0.14 | 0.11 | 88 | 2111.4 |
| 20260509134600 | 70 | 262 | 1.0 | 5.0 | 0.02 | 0.14 | 0.11 | 88 | 1232.5 |
| 20260509134101 | 70 | 334 | 3.0 | 4.0 | 0.02 | 0.14 | 0.11 | 88 | 1056.6 |
| 20260509133602 | 70 | 352 | 2.0 | 3.0 | 0.02 | 0.14 | 0.11 | 88 | 1646.2 |
| 20260509133108 | 70 | 333 | 2.0 | 3.0 | 0.03 | 0.14 | 0.11 | 88 | 1697.9 |
| 20260509132602 | 70 | 360 | 1.0 | 3.0 | 0.03 | 0.14 | 0.11 | 88 | 62.3 |
| 20260509132101 | 70 | 360 | 1.0 | 3.0 | 0.02 | 0.13 | 0.10 | 88 | 2121.8 |
| 20260509131609 | 70 | 333 | 1.0 | 2.0 | 0.03 | 0.13 | 0.10 | 87 | 146.5 |
| 20260509131101 | 70 | 0 | 0.0 | 4.0 | 0.02 | 0.12 | 0.09 | 87 | 1728.9 |
| 20260509130601 | 70 | 230 | 1.0 | 4.0 | 0.02 | 0.12 | 0.09 | 87 | 229.5 |
| 20260509125602 | 70 | 344 | 2.0 | 3.0 | 0.03 | 0.13 | 0.09 | 87 | 219.2 |
| 20260509125101 | 70 | 344 | 1.0 | 3.0 | 0.03 | 0.13 | 0.09 | 87 | 622.0 |
| 20260509124612 | 70 | 344 | 1.0 | 3.0 | 0.02 | 0.12 | 0.08 | 87 | 2204.5 |
| 20260509124058 | 70 | 348 | 1.0 | 3.0 | 0.02 | 0.12 | 0.08 | 87 | 1056.6 |
| 20260509123600 | 70 | 15 | 1.0 | 2.0 | 0.02 | 0.12 | 0.08 | 86 | 219.2 |
| 20260509123100 | 70 | 15 | 1.0 | 3.0 | 0.01 | 0.11 | 0.07 | 86 | 1470.4 |
| 20260509122601 | 71 | 29 | 1.0 | 3.0 | 0.01 | 0.11 | 0.07 | 86 | 145.3 |
| 20260509122101 | 71 | 29 | 1.0 | 3.0 | 0.01 | 0.11 | 0.07 | 86 | 1563.4 |
| 20260509121602 | 71 | 43 | 1.0 | 3.0 | 0.00 | 0.11 | 0.07 | 86 | 385.0 |
| 20260509121104 | 71 | 38 | 1.0 | 3.0 | 0.00 | 0.11 | 0.07 | 86 | 808.3 |
| 20260509120633 | 71 | 0 | 1.0 | 3.0 | 0.00 | 0.11 | 0.07 | 86 | 135.0 |
| 20260509120101 | 71 | 349 | 0.0 | 3.0 | 0.00 | 0.11 | 0.07 | 85 | 5.8 |
| 20260509115601 | 71 | 236 | 2.0 | 3.0 | 0.00 | 0.14 | 0.06 | 85 | 1211.8 |
| 20260509115101 | 71 | 19 | 0.0 | 2.0 | 0.00 | 0.14 | 0.06 | 85 | 1398.0 |
| 20260509114601 | 71 | 31 | 0.0 | 2.0 | 0.00 | 0.14 | 0.06 | 85 | 53.1 |
| 20260509114101 | 71 | 264 | 0.0 | 4.0 | 0.00 | 0.14 | 0.06 | 84 | 125.8 |
| 20260509113600 | 71 | 0 | 0.0 | 4.0 | 0.00 | 0.14 | 0.06 | 84 | 1894.3 |
| 20260509113059 | 71 | 205 | 2.0 | 3.0 | 0.00 | 0.14 | 0.06 | 84 | 456.3 |
| 20260509112603 | 71 | 13 | 2.0 | 7.0 | 0.00 | 0.14 | 0.06 | 84 | 217.9 |
| 20260509112101 | 72 | 43 | 1.0 | 7.0 | 0.00 | 0.14 | 0.06 | 84 | 302.1 |
| 20260509111600 | 72 | 115 | 2.0 | 7.0 | 0.00 | 0.14 | 0.06 | 83 | 385.0 |
| 20260509111058 | 72 | 143 | 2.0 | 9.0 | 0.00 | 0.14 | 0.06 | 83 | 1532.4 |
| 20260509110604 | 72 | 136 | 3.0 | 9.0 | 0.00 | 0.14 | 0.06 | 83 | 735.8 |
| 20260509105601 | 72 | 236 | 3.0 | 9.0 | 0.00 | 0.16 | 0.06 | 84 | 1066.9 |
| 20260509105102 | 72 | 207 | 4.0 | 9.0 | 0.00 | 0.16 | 0.06 | 84 | 5.8 |
| 20260509104603 | 71 | 205 | 4.0 | 9.0 | 0.00 | 0.16 | 0.06 | 84 | 787.6 |
| 20260509104108 | 71 | 143 | 4.0 | 8.0 | 0.00 | 0.16 | 0.06 | 84 | 1129.0 |
| 20260509103601 | 71 | 167 | 4.0 | 9.0 | 0.00 | 0.16 | 0.06 | 83 | 2049.4 |
| 20260509103059 | 72 | 175 | 4.0 | 15.0 | 0.00 | 0.16 | 0.06 | 83 | 704.8 |
| 20260509102558 | 72 | 194 | 7.0 | 15.0 | 0.00 | 0.16 | 0.06 | 83 | 1046.2 |
| 20260509102101 | 72 | 186 | 6.0 | 15.0 | 0.00 | 0.16 | 0.06 | 82 | 300.9 |
| 20260509101600 | 72 | 219 | 5.0 | 9.0 | 0.00 | 0.16 | 0.06 | 82 | 2049.4 |
| 20260509101058 | 72 | 152 | 4.0 | 10.0 | 0.00 | 0.16 | 0.06 | 82 | 1387.6 |
| 20260509100602 | 72 | 147 | 3.0 | 11.0 | 0.00 | 0.16 | 0.06 | 82 | 818.6 |
| 20260509100110 | 72 | 169 | 5.0 | 11.0 | 0.00 | 0.16 | 0.06 | 82 | 1780.6 |
| 20260509095601 | 72 | 178 | 6.0 | 10.0 | 0.00 | 0.18 | 0.06 | 82 | 984.2 |
| 20260509095101 | 72 | 194 | 4.0 | 9.0 | 0.00 | 0.18 | 0.06 | 82 | 1222.1 |
| 20260509094559 | 72 | 164 | 4.0 | 8.0 | 0.00 | 0.18 | 0.06 | 82 | 1977.0 |
| 20260509094100 | 72 | 109 | 3.0 | 9.0 | 0.00 | 0.18 | 0.06 | 82 | 891.1 |
| 20260509093600 | 72 | 207 | 3.0 | 9.0 | 0.00 | 0.18 | 0.06 | 81 | 2039.1 |
| 20260509093100 | 72 | 213 | 5.0 | 15.0 | 0.00 | 0.18 | 0.06 | 81 | 1532.4 |
| 20260509092600 | 72 | 146 | 6.0 | 15.0 | 0.00 | 0.18 | 0.06 | 81 | 63.5 |
| 20260509092104 | 72 | 215 | 4.0 | 14.0 | 0.00 | 0.18 | 0.06 | 81 | 704.8 |
| 20260509091603 | 72 | 198 | 6.0 | 13.0 | 0.00 | 0.18 | 0.06 | 80 | 395.3 |
| 20260509091103 | 72 | 235 | 6.0 | 13.0 | 0.00 | 0.18 | 0.06 | 80 | 1035.9 |
| 20260509090601 | 72 | 180 | 5.0 | 10.0 | 0.00 | 0.18 | 0.06 | 80 | 394.1 |
| 20260509090101 | 72 | 175 | 5.0 | 14.0 | 0.00 | 0.18 | 0.06 | 80 | 302.1 |
| 20260509085601 | 72 | 199 | 8.0 | 14.0 | 0.00 | 0.18 | 0.06 | 80 | 2028.7 |
| 20260509085102 | 72 | 170 | 5.0 | 8.0 | 0.00 | 0.18 | 0.06 | 79 | 901.4 |
| 20260509084605 | 72 | 214 | 5.0 | 8.0 | 0.00 | 0.18 | 0.06 | 80 | 1222.1 |
| 20260509084101 | 72 | 229 | 5.0 | 10.0 | 0.00 | 0.18 | 0.06 | 80 | 963.5 |
| 20260509083601 | 72 | 194 | 2.0 | 10.0 | 0.00 | 0.18 | 0.06 | 80 | 53.1 |
| 20260509083111 | 72 | 238 | 4.0 | 12.0 | 0.00 | 0.18 | 0.06 | 79 | 228.3 |
| 20260509082601 | 72 | 194 | 6.0 | 12.0 | 0.00 | 0.18 | 0.06 | 79 | 136.2 |
| 20260509082105 | 72 | 183 | 4.0 | 12.0 | 0.00 | 0.18 | 0.06 | 79 | 1790.9 |
| 20260509081600 | 72 | 224 | 6.0 | 12.0 | 0.00 | 0.18 | 0.06 | 79 | 622.0 |
| 20260509081104 | 72 | 213 | 4.0 | 14.0 | 0.00 | 0.18 | 0.06 | 79 | 42.7 |
| 20260509080602 | 72 | 178 | 7.0 | 14.0 | 0.00 | 0.18 | 0.06 | 79 | 653.0 |
| 20260509080139 | 72 | 219 | 6.0 | 11.0 | 0.00 | 0.18 | 0.06 | 79 | 1977.0 |
| 20260509075603 | 72 | 175 | 3.0 | 11.0 | 0.00 | 0.21 | 0.06 | 79 | 395.3 |
| 20260509075101 | 72 | 202 | 2.0 | 8.0 | 0.00 | 0.21 | 0.06 | 79 | 1873.6 |
| 20260509074609 | 72 | 215 | 3.0 | 10.0 | 0.00 | 0.21 | 0.06 | 79 | 1387.6 |
| 20260509074102 | 72 | 227 | 5.0 | 10.0 | 0.00 | 0.21 | 0.06 | 79 | 1387.6 |
| 20260509073601 | 72 | 232 | 4.0 | 11.0 | 0.00 | 0.21 | 0.06 | 79 | 2132.1 |
| 20260509073216 | 72 | 244 | 4.0 | 11.0 | 0.00 | 0.21 | 0.06 | 79 | 1304.9 |
| 20260509072601 | 72 | 186 | 5.0 | 11.0 | 0.00 | 0.21 | 0.06 | 79 | 1066.9 |
| 20260509072101 | 72 | 186 | 4.0 | 10.0 | 0.00 | 0.21 | 0.06 | 79 | 622.0 |
| 20260509071600 | 72 | 225 | 5.0 | 10.0 | 0.00 | 0.21 | 0.06 | 78 | 2028.7 |
| 20260509071101 | 72 | 199 | 4.0 | 11.0 | 0.00 | 0.21 | 0.06 | 78 | 1966.7 |
| 20260509070602 | 72 | 179 | 6.0 | 14.0 | 0.00 | 0.21 | 0.06 | 79 | 715.1 |
| 20260509065601 | 73 | 198 | 4.0 | 12.0 | 0.00 | 0.22 | 0.06 | 78 | 1222.1 |
| 20260509065059 | 73 | 189 | 6.0 | 12.0 | 0.00 | 0.22 | 0.06 | 79 | 405.7 |
| 20260509064600 | 73 | 215 | 6.0 | 9.0 | 0.00 | 0.22 | 0.06 | 78 | 302.1 |
| 20260509064100 | 73 | 213 | 5.0 | 10.0 | 0.00 | 0.22 | 0.06 | 79 | 1129.0 |
| 20260509063559 | 73 | 217 | 3.0 | 10.0 | 0.00 | 0.22 | 0.06 | 79 | 124.6 |
| 20260509063102 | 73 | 205 | 4.0 | 9.0 | 0.00 | 0.22 | 0.06 | 79 | 953.2 |
| 20260509062559 | 73 | 230 | 4.0 | 7.0 | 0.00 | 0.22 | 0.06 | 78 | 374.6 |
| 20260509062059 | 73 | 130 | 3.0 | 7.0 | 0.00 | 0.22 | 0.06 | 79 | 1129.0 |
| 20260509061601 | 73 | 215 | 3.0 | 8.0 | 0.00 | 0.22 | 0.06 | 79 | 1284.2 |
| 20260509061058 | 73 | 219 | 2.0 | 8.0 | 0.00 | 0.22 | 0.06 | 79 | 2214.8 |
| 20260509060559 | 73 | 244 | 4.0 | 8.0 | 0.00 | 0.22 | 0.06 | 78 | 1035.9 |
| 20260509055559 | 73 | 218 | 4.0 | 10.0 | 0.00 | 0.22 | 0.06 | 79 | 1387.6 |
| 20260509055058 | 73 | 215 | 5.0 | 9.0 | 0.00 | 0.22 | 0.06 | 78 | 2049.4 |
| 20260509054604 | 73 | 202 | 4.0 | 15.0 | 0.00 | 0.22 | 0.06 | 78 | 2111.4 |
| 20260509054058 | 73 | 227 | 5.0 | 15.0 | 0.00 | 0.22 | 0.06 | 78 | 51.9 |
| 20260509053558 | 74 | 225 | 5.0 | 12.0 | 0.00 | 0.22 | 0.06 | 78 | 808.3 |
| 20260509053058 | 74 | 163 | 6.0 | 11.0 | 0.00 | 0.22 | 0.06 | 77 | 1625.5 |
| 20260509052559 | 74 | 199 | 4.0 | 11.0 | 0.00 | 0.22 | 0.06 | 77 | 145.3 |
| 20260509052100 | 74 | 186 | 5.0 | 11.0 | 0.00 | 0.22 | 0.06 | 78 | 487.3 |
| 20260509051604 | 74 | 211 | 6.0 | 11.0 | 0.00 | 0.22 | 0.06 | 77 | 42.7 |
| 20260509051103 | 75 | 201 | 5.0 | 11.0 | 0.00 | 0.22 | 0.06 | 78 | 1160.1 |
| 20260509050559 | 74 | 168 | 4.0 | 14.0 | 0.00 | 0.22 | 0.06 | 78 | 72.7 |
| 20260509050100 | 74 | 213 | 9.0 | 18.0 | 0.00 | 0.22 | 0.06 | 78 | 291.7 |
| 20260509045600 | 74 | 174 | 8.0 | 18.0 | 0.00 | 0.22 | 0.06 | 77 | 963.5 |
| 20260509045059 | 75 | 152 | 6.0 | 14.0 | 0.00 | 0.22 | 0.06 | 77 | 622.0 |
| 20260509044557 | 75 | 199 | 5.0 | 13.0 | 0.00 | 0.22 | 0.06 | 78 | 1294.5 |
| 20260509044102 | 75 | 169 | 5.0 | 11.0 | 0.00 | 0.22 | 0.06 | 79 | 2132.1 |
| 20260509043600 | 75 | 209 | 6.0 | 12.0 | 0.00 | 0.22 | 0.06 | 78 | 1222.1 |
| 20260509043104 | 75 | 221 | 7.0 | 13.0 | 0.00 | 0.22 | 0.06 | 78 | 374.6 |
| 20260509042559 | 75 | 220 | 7.0 | 13.0 | 0.00 | 0.22 | 0.06 | 78 | 808.3 |
| 20260509042102 | 75 | 188 | 7.0 | 12.0 | 0.00 | 0.22 | 0.06 | 78 | 2214.8 |
| 20260509041559 | 75 | 227 | 6.0 | 12.0 | 0.00 | 0.22 | 0.06 | 78 | 383.8 |
| 20260509041059 | 75 | 198 | 8.0 | 14.0 | 0.00 | 0.22 | 0.06 | 78 | 2204.5 |
| 20260509040600 | 75 | 200 | 6.0 | 14.0 | 0.00 | 0.22 | 0.06 | 78 | 312.4 |
| 20260509040107 | 75 | 192 | 8.0 | 17.0 | 0.00 | 0.22 | 0.06 | 78 | 570.2 |
| 20260509035559 | 75 | 165 | 6.0 | 17.0 | 0.00 | 0.22 | 0.06 | 79 | 466.6 |
| 20260509035059 | 75 | 192 | 8.0 | 15.0 | 0.00 | 0.22 | 0.06 | 78 | 383.8 |
| 20260509034557 | 75 | 194 | 7.0 | 14.0 | 0.00 | 0.22 | 0.06 | 79 | 891.1 |
| 20260509034059 | 75 | 217 | 7.0 | 11.0 | 0.00 | 0.22 | 0.06 | 79 | 1615.1 |
| 20260509033559 | 75 | 168 | 4.0 | 10.0 | 0.00 | 0.22 | 0.06 | 79 | 145.3 |
| 20260509033100 | 75 | 196 | 4.0 | 11.0 | 0.00 | 0.22 | 0.06 | 80 | 1129.0 |
| 20260509032559 | 75 | 230 | 5.0 | 11.0 | 0.00 | 0.22 | 0.06 | 79 | 963.5 |
| 20260509032058 | 75 | 234 | 3.0 | 10.0 | 0.00 | 0.22 | 0.06 | 80 | 1284.2 |
| 20260509031558 | 75 | 185 | 6.0 | 13.0 | 0.00 | 0.22 | 0.06 | 80 | 1790.9 |
| 20260509031058 | 75 | 222 | 7.0 | 13.0 | 0.00 | 0.22 | 0.06 | 79 | 787.6 |
| 20260509030558 | 75 | 192 | 7.0 | 12.0 | 0.00 | 0.22 | 0.06 | 80 | 870.4 |
| 20260509030101 | 74 | 226 | 6.0 | 12.0 | 0.00 | 0.22 | 0.06 | 80 | 1066.9 |
| 20260509025601 | 75 | 197 | 6.0 | 13.0 | 0.00 | 0.22 | 0.06 | 80 | 1790.9 |
| 20260509025058 | 75 | 184 | 8.0 | 17.0 | 0.00 | 0.22 | 0.06 | 80 | 1480.7 |
| 20260509024556 | 75 | 158 | 10.0 | 17.0 | 0.00 | 0.22 | 0.06 | 80 | 1315.2 |
| 20260509024059 | 75 | 218 | 5.0 | 18.0 | 0.00 | 0.22 | 0.06 | 80 | 984.2 |
| 20260509023558 | 75 | 202 | 6.0 | 18.0 | 0.00 | 0.22 | 0.06 | 80 | 302.1 |
| 20260509023100 | 75 | 150 | 10.0 | 18.0 | 0.00 | 0.22 | 0.06 | 80 | 1460.0 |
| 20260509022559 | 75 | 203 | 7.0 | 17.0 | 0.00 | 0.22 | 0.06 | 80 | 2132.1 |
| 20260509022059 | 75 | 169 | 8.0 | 17.0 | 0.00 | 0.22 | 0.06 | 80 | 41.5 |
| 20260509021559 | 75 | 159 | 8.0 | 16.0 | 0.00 | 0.22 | 0.06 | 80 | 1222.1 |
| 20260509021059 | 75 | 163 | 8.0 | 15.0 | 0.00 | 0.22 | 0.06 | 80 | 1366.9 |
| 20260509020558 | 75 | 163 | 4.0 | 12.0 | 0.00 | 0.22 | 0.06 | 80 | 228.3 |
| 20260509020100 | 75 | 187 | 5.0 | 12.0 | 0.00 | 0.22 | 0.06 | 81 | 62.3 |
| 20260509015558 | 75 | 223 | 7.0 | 12.0 | 0.00 | 0.22 | 0.06 | 80 | 984.2 |
| 20260509015100 | 75 | 231 | 3.0 | 9.0 | 0.00 | 0.22 | 0.06 | 81 | 73.9 |
| 20260509014600 | 75 | 214 | 4.0 | 13.0 | 0.00 | 0.22 | 0.06 | 80 | 1046.2 |
| 20260509014101 | 75 | 201 | 6.0 | 13.0 | 0.00 | 0.22 | 0.06 | 80 | 1956.3 |
| 20260509013558 | 75 | 183 | 6.0 | 13.0 | 0.00 | 0.22 | 0.06 | 80 | 1460.0 |
| 20260509013107 | 76 | 214 | 7.0 | 13.0 | 0.00 | 0.22 | 0.06 | 79 | 1718.5 |
| 20260509012558 | 76 | 199 | 4.0 | 14.0 | 0.00 | 0.22 | 0.06 | 80 | 880.7 |
| 20260509012058 | 76 | 171 | 4.0 | 14.0 | 0.00 | 0.22 | 0.06 | 81 | 1222.1 |
| 20260509011601 | 76 | 219 | 6.0 | 14.0 | 0.00 | 0.22 | 0.06 | 79 | 1542.8 |
| 20260509011058 | 75 | 213 | 7.0 | 14.0 | 0.00 | 0.22 | 0.06 | 80 | 1811.6 |
| 20260509010603 | 75 | 225 | 9.0 | 13.0 | 0.00 | 0.22 | 0.06 | 80 | 1232.5 |
| 20260509010100 | 75 | 223 | 6.0 | 21.0 | 0.00 | 0.22 | 0.06 | 81 | 549.5 |
| 20260509005558 | 74 | 188 | 8.0 | 21.0 | 0.00 | 0.22 | 0.06 | 81 | 1449.7 |
| 20260509005059 | 74 | 213 | 7.0 | 21.0 | 0.00 | 0.22 | 0.06 | 81 | 466.6 |
| 20260509004618 | 75 | 143 | 8.0 | 15.0 | 0.00 | 0.22 | 0.06 | 81 | 1708.2 |
| 20260509004057 | 75 | 243 | 5.0 | 12.0 | 0.00 | 0.22 | 0.06 | 82 | 622.0 |
| 20260509003559 | 74 | 173 | 5.0 | 11.0 | 0.00 | 0.22 | 0.06 | 82 | 1790.9 |
| 20260509003102 | 74 | 210 | 6.0 | 10.0 | 0.00 | 0.22 | 0.06 | 82 | 1501.4 |
| 20260509002558 | 74 | 173 | 7.0 | 10.0 | 0.00 | 0.22 | 0.06 | 82 | 1790.9 |
| 20260509002058 | 74 | 198 | 4.0 | 9.0 | 0.00 | 0.22 | 0.06 | 82 | 570.2 |
| 20260509001600 | 74 | 200 | 4.0 | 10.0 | 0.00 | 0.22 | 0.06 | 82 | 62.3 |
| 20260509001058 | 73 | 155 | 5.0 | 12.0 | 0.00 | 0.22 | 0.06 | 82 | 300.9 |
| 20260509000559 | 74 | 178 | 6.0 | 13.0 | 0.00 | 0.22 | 0.06 | 82 | 1956.3 |
| 20260508235600 | 74 | 174 | 8.0 | 13.0 | 0.00 | 0.23 | 0.06 | 82 | 394.1 |
| 20260508235058 | 74 | 185 | 5.0 | 12.0 | 0.00 | 0.23 | 0.06 | 82 | 549.5 |
| 20260508234557 | 74 | 183 | 6.0 | 10.0 | 0.00 | 0.23 | 0.06 | 82 | 1801.2 |
| 20260508234059 | 74 | 244 | 5.0 | 12.0 | 0.00 | 0.23 | 0.06 | 82 | 53.1 |
| 20260508233559 | 74 | 198 | 4.0 | 13.0 | 0.00 | 0.23 | 0.06 | 82 | 373.4 |
| 20260508233143 | 74 | 232 | 8.0 | 13.0 | 0.00 | 0.23 | 0.06 | 81 | 1222.1 |
| 20260508232559 | 75 | 215 | 4.0 | 11.0 | 0.00 | 0.23 | 0.06 | 81 | 725.5 |
| 20260508232101 | 75 | 233 | 5.0 | 11.0 | 0.00 | 0.23 | 0.06 | 82 | 549.5 |
| 20260508231607 | 74 | 155 | 5.0 | 8.0 | 0.00 | 0.23 | 0.06 | 82 | 124.6 |
| 20260508231102 | 74 | 205 | 3.0 | 9.0 | 0.00 | 0.23 | 0.06 | 82 | 207.6 |
| 20260508230558 | 74 | 219 | 4.0 | 9.0 | 0.00 | 0.23 | 0.06 | 82 | 1780.6 |
| 20260508230103 | 74 | 218 | 5.0 | 9.0 | 0.00 | 0.23 | 0.06 | 82 | 124.6 |
| 20260508225558 | 73 | 230 | 4.0 | 9.0 | 0.00 | 0.23 | 0.06 | 83 | 559.8 |
| 20260508225059 | 73 | 225 | 5.0 | 9.0 | 0.00 | 0.23 | 0.06 | 82 | 963.5 |
| 20260508224602 | 73 | 228 | 4.0 | 8.0 | 0.00 | 0.23 | 0.06 | 82 | 1966.7 |
| 20260508224100 | 73 | 215 | 4.0 | 8.0 | 0.00 | 0.23 | 0.06 | 82 | 559.8 |
| 20260508223601 | 73 | 215 | 2.0 | 7.0 | 0.00 | 0.23 | 0.06 | 82 | 642.7 |
| 20260508223059 | 73 | 241 | 3.0 | 7.0 | 0.00 | 0.23 | 0.06 | 82 | 1780.6 |
| 20260508222558 | 73 | 242 | 4.0 | 7.0 | 0.00 | 0.23 | 0.06 | 82 | 300.9 |
| 20260508222059 | 73 | 223 | 3.0 | 7.0 | 0.00 | 0.23 | 0.06 | 82 | 124.6 |
| 20260508221559 | 73 | 227 | 4.0 | 7.0 | 0.00 | 0.23 | 0.06 | 82 | 146.5 |
| 20260508221059 | 73 | 225 | 4.0 | 7.0 | 0.00 | 0.23 | 0.06 | 82 | 973.8 |
| 20260508220558 | 73 | 185 | 3.0 | 9.0 | 0.00 | 0.23 | 0.06 | 82 | 2214.8 |
| 20260508220109 | 73 | 215 | 4.0 | 9.0 | 0.00 | 0.23 | 0.06 | 82 | 1480.7 |
| 20260508215558 | 73 | 218 | 5.0 | 8.0 | 0.00 | 0.23 | 0.06 | 82 | 973.8 |
| 20260508215059 | 73 | 226 | 4.0 | 8.0 | 0.00 | 0.23 | 0.06 | 82 | 1718.5 |
| 20260508214602 | 73 | 209 | 3.0 | 8.0 | 0.00 | 0.23 | 0.06 | 82 | 312.4 |
| 20260508214058 | 73 | 217 | 4.0 | 9.0 | 0.00 | 0.23 | 0.06 | 83 | 72.7 |
| 20260508213558 | 73 | 222 | 3.0 | 9.0 | 0.00 | 0.23 | 0.06 | 83 | 394.1 |
| 20260508213100 | 73 | 226 | 4.0 | 9.0 | 0.00 | 0.23 | 0.06 | 83 | 653.0 |
| 20260508212557 | 73 | 224 | 4.0 | 9.0 | 0.00 | 0.23 | 0.06 | 83 | 405.7 |
| 20260508212059 | 72 | 212 | 4.0 | 9.0 | 0.00 | 0.23 | 0.06 | 83 | 735.8 |
| 20260508211602 | 72 | 220 | 4.0 | 9.0 | 0.00 | 0.23 | 0.06 | 83 | 1480.7 |
| 20260508211059 | 72 | 225 | 4.0 | 9.0 | 0.00 | 0.23 | 0.06 | 83 | 1873.6 |
| 20260508210559 | 72 | 237 | 3.0 | 9.0 | 0.00 | 0.23 | 0.06 | 84 | 1315.2 |
| 20260508210128 | 72 | 229 | 4.0 | 8.0 | 0.00 | 0.23 | 0.06 | 84 | 135.0 |
| 20260508205558 | 72 | 240 | 4.0 | 8.0 | 0.00 | 0.23 | 0.06 | 84 | 291.7 |
| 20260508205102 | 72 | 245 | 4.0 | 8.0 | 0.00 | 0.23 | 0.06 | 84 | 291.7 |
| 20260508204558 | 72 | 214 | 3.0 | 7.0 | 0.00 | 0.23 | 0.06 | 84 | 456.3 |
| 20260508204058 | 72 | 217 | 3.0 | 8.0 | 0.00 | 0.23 | 0.06 | 84 | 818.6 |
| 20260508203601 | 72 | 213 | 4.0 | 8.0 | 0.00 | 0.23 | 0.06 | 84 | 2214.8 |
| 20260508203059 | 72 | 215 | 4.0 | 7.0 | 0.00 | 0.23 | 0.06 | 84 | 1480.7 |
| 20260508202559 | 72 | 218 | 4.0 | 9.0 | 0.00 | 0.23 | 0.06 | 84 | 1056.6 |
| 20260508202101 | 72 | 200 | 3.0 | 9.0 | 0.00 | 0.23 | 0.06 | 85 | 321.6 |